This demonstration page uses our WeatherBlox Daily Observations layout. Learn more.

Left ArrowRight Arrow

Hourly Observations for June 17, 2017

Temp ( °F °C ) Dew Point ( °F °C ) Humidity (%) Winds ( mph kmh ) Pressure ( in mb ) Visibility ( mi km ) Precip ( " mm )
12:07 am 00:07 Clear 75 24 66 19 74 74 SSW 5 7 29.77 1008 10 16 N/A
12:26 am 00:26 Clear 75 24 66 19 74 74 SSW 6 9 29.77 1008 10 16 N/A
12:47 am 00:47 Clear 75 24 68 20 78 78 SSW 5 7 29.80 1009 10 16 N/A
1:06 am 01:06 Clear 73 23 68 20 83 83 SSW 5 7 29.77 1008 10 16 N/A
1:27 am 01:27 Clear 73 23 68 20 83 83 S 5 7 29.77 1008 10 16 N/A
1:47 am 01:47 Clear 73 23 68 20 83 83 SW 6 9 29.77 1008 10 16 N/A
2:06 am 02:06 Clear 73 23 68 20 83 83 SW 8 13 29.77 1008 10 16 N/A
2:27 am 02:27 Clear 73 23 68 20 83 83 SSW 7 11 29.77 1008 10 16 N/A
2:47 am 02:47 Clear 73 23 68 20 83 83 SSW 7 11 29.77 1008 10 16 N/A
3:06 am 03:06 Clear 72 22 68 20 88 88 SSW 6 9 29.77 1008 10 16 N/A
3:27 am 03:27 Clear 72 22 68 20 88 88 S 6 9 29.77 1008 10 16 N/A
3:47 am 03:47 Clear 72 22 68 20 88 88 S 5 7 29.77 1008 10 16 N/A
4:06 am 04:06 Clear 72 22 68 20 88 88 S 5 7 29.74 1007 10 16 N/A
4:27 am 04:27 Clear 70 21 68 20 94 94 S 6 9 29.77 1008 10 16 N/A
4:46 am 04:46 Clear 70 21 68 20 94 94 S 6 9 29.77 1008 10 16 N/A
5:06 am 05:06 Clear 70 21 68 20 94 94 S 8 13 29.77 1008 10 16 N/A
5:27 am 05:27 Clear 70 21 68 20 94 94 S 6 9 29.77 1008 10 16 N/A
5:46 am 05:46 Clear 70 21 68 20 94 94 S 6 9 29.77 1008 10 16 N/A
6:07 am 06:07 Clear 70 21 68 20 94 94 SSW 6 9 29.77 1008 10 16 N/A
6:27 am 06:27 Sunny 70 21 66 19 88 88 S 6 9 29.77 1008 10 16 N/A
6:46 am 06:46 Sunny 70 21 66 19 88 88 S 6 9 29.77 1008 7 11 N/A
7:07 am 07:07 Sunny 70 21 68 20 94 94 S 6 9 29.77 1008 10 16 N/A
7:26 am 07:26 Sunny 70 21 68 20 94 94 S 6 9 29.77 1008 10 16 N/A
7:47 am 07:47 Sunny 70 21 68 20 94 94 S 7 11 29.77 1008 10 16 N/A
8:06 am 08:06 Sunny 72 22 68 20 88 88 S 7 11 29.77 1008 10 16 N/A
8:27 am 08:27 Sunny 72 22 68 20 88 88 S 8 13 29.77 1008 10 16 N/A
8:46 am 08:46 Sunny 73 23 68 20 83 83 S 8 13 29.77 1008 10 16 N/A
9:06 am 09:06 Sunny 73 23 70 21 89 89 S 9 15 29.77 1008 10 16 N/A
9:27 am 09:27 Sunny 75 24 70 21 83 83 S 9 15 29.77 1008 10 16 N/A
9:46 am 09:46 Sunny 77 25 70 21 79 79 SSW 8 13 29.77 1008 10 16 N/A
10:07 am 10:07 Sunny 79 26 68 20 70 70 SSW 10 17 29.77 1008 10 16 N/A
10:27 am 10:27 Sunny 79 26 66 19 65 65 SSW 13 20 29.74 1007 10 16 N/A
10:46 am 10:46 Sunny 81 27 66 19 62 62 SSW 13 20 29.74 1007 10 16 N/A
11:07 am 11:07 Sunny 81 27 68 20 66 66 S 13 20 29.74 1007 10 16 N/A
11:26 am 11:26 Sunny 81 27 68 20 66 66 S 13 20 29.74 1007 10 16 N/A
11:47 am 11:47 Sunny 82 28 66 19 58 58 S 10 17 29.74 1007 10 16 N/A
12:07 pm 12:07 Sunny 82 28 66 19 58 58 SSW 14 22 29.74 1007 10 16 N/A
12:26 pm 12:26 Sunny 82 28 64 18 55 55 SSW 16 26 29.74 1007 10 16 N/A
12:47 pm 12:47 Sunny 82 28 66 19 58 58 SSW 12 19 29.74 1007 10 16 N/A
1:06 pm 13:06 Sunny 82 28 66 19 58 58 SSW 13 20 29.74 1007 10 16 N/A
1:27 pm 13:27 Sunny 82 28 66 19 58 58 SSW 8 13 29.74 1007 10 16 N/A
1:47 pm 13:47 Sunny 82 28 66 19 58 58 SW 12 19 29.74 1007 10 16 N/A
2:06 pm 14:06 Sunny 82 28 64 18 55 55 SW 15 24 29.74 1007 10 16 N/A
2:27 pm 14:27 Sunny 82 28 66 19 58 58 SSW 9 15 29.74 1007 10 16 N/A
2:47 pm 14:47 Sunny 82 28 68 20 62 62 SSW 9 15 29.74 1007 10 16 N/A
3:06 pm 15:06 Sunny 84 29 68 20 58 58 S 12 19 29.68 1005 10 16 N/A
3:27 pm 15:27 Partly Cloudy 86 30 66 19 52 52 SSW 18 30 29.68 1005 10 16 N/A
3:46 pm 15:46 Partly Cloudy 86 30 66 19 52 52 S 12 19 29.68 1005 10 16 N/A
4:07 pm 16:07 Partly Cloudy 88 31 66 19 49 49 SSW 13 20 29.68 1005 10 16 N/A
4:27 pm 16:27 Partly Cloudy 88 31 66 19 49 49 S 14 22 29.68 1005 10 16 N/A
4:46 pm 16:46 Mostly Cloudy 86 30 66 19 52 52 S 15 24 29.68 1005 10 16 N/A
5:07 pm 17:07 Mostly Cloudy 84 29 64 18 51 51 SW 16 26 29.68 1005 10 16 N/A
5:26 pm 17:26 Cloudy 82 28 64 18 55 55 SSW 17 28 29.68 1005 10 16 N/A
5:47 pm 17:47 Cloudy 81 27 68 20 66 66 SW 15 24 29.71 1006 7 11 N/A
6:06 pm 18:06 Mostly Cloudy 79 26 68 20 70 70 SSW 13 20 29.71 1006 10 16 N/A
6:27 pm 18:27 Mostly Cloudy 79 26 66 19 65 65 S 12 19 29.71 1006 10 16 N/A
6:47 pm 18:47 Cloudy 79 26 68 20 70 70 S 6 9 29.71 1006 10 16 N/A
7:06 pm 19:06 Cloudy 79 26 68 20 70 70 SSW 5 7 29.71 1006 10 16 N/A
7:27 pm 19:27 Partly Cloudy 81 27 68 20 66 66 SSW 6 9 29.71 1006 10 16 N/A
7:46 pm 19:46 Sunny 82 28 70 21 66 66 SSW 8 13 29.65 1004 10 16 N/A
8:07 pm 20:07 Sunny 82 28 70 21 66 66 SSW 12 19 29.65 1004 10 16 N/A
8:27 pm 20:27 Sunny 82 28 70 21 66 66 SSW 13 20 29.65 1004 10 16 N/A
8:46 pm 20:46 Sunny 81 27 70 21 70 70 SSW 8 13 29.68 1005 10 16 N/A
9:07 pm 21:07 Partly Cloudy 81 27 68 20 66 66 SSW 8 13 29.68 1005 10 16 N/A
9:27 pm 21:27 Partly Cloudy 79 26 70 21 74 74 SSW 8 13 29.68 1005 10 16 N/A
9:46 pm 21:46 Clear 79 26 70 21 74 74 SSW 7 11 29.68 1005 10 16 N/A
10:07 pm 22:07 Clear 77 25 70 21 79 79 S 6 9 29.68 1005 10 16 N/A
10:27 pm 22:27 Clear 77 25 68 20 74 74 S 8 13 29.68 1005 10 16 N/A
10:46 pm 22:46 Clear 77 25 68 20 74 74 S 7 11 29.68 1005 10 16 N/A
11:07 pm 23:07 Clear 77 25 68 20 74 74 SSW 6 9 29.71 1006 10 16 N/A
11:27 pm 23:27 Clear 77 25 68 20 74 74 S 8 13 29.68 1005 10 16 N/A
11:47 pm 23:47 Clear 75 24 68 20 78 78 S 7 11 29.68 1005 10 16 N/A

Powered by AerisWeather